Flag for Slovenia Weather past 2 weeks in Ljubljana, Slovenia

Now
62 °F

Light rain. Overcast.


Feels Like: 62 °F
Forecast: 62 / 71 °F
Wind: No wind

Location: Ljubljana / Bezigrad

Current Time: Jul 28, 2015 at 8:07:39 AM

Latest Report: Jul 28, 2015 at 7:00 AM


Visibility: 16 mi

Pressure: 29.86 "Hg

Humidity: 96%

Dew point: 61 °F

Location of LjubljanaLocation

Historic Weather in Ljubljana — Graph

°F

Ljubljana temperature yesterday

Maximum temperature yesterday: 68 °F (at 4:00 PM)
Minimum temperature yesterday: 61 °F (at 7:00 AM)
Average temperature yesterday: 64 °F

Past Weeks' High & Low Weather Summary

 TemperatureHumidityPressure
High96 °F (Jul 22, 4:00 PM)98% (Jul 14, 6:00 AM)30.11 "Hg (Jul 14, 6:00 AM)
Low61 °F (Jul 28, 5:00 AM)31% (Jul 18, 5:00 PM)29.70 "Hg (Jul 25, 6:00 PM)
Average77 °F67%29.93 "Hg
* Reported Jul 13 6:00 AM — Jul 28 6:00 AM, Ljubljana, Weather by CustomWeather, © 2015

Note: Actual official high and low records may vary slightly from our data, if they occured in-between our weather recording intervals... More about our weather records

Advertising

Ljubljana weather history for previous 24 hours

 ConditionsComfort  
Time TempWeatherWind HumidityBarometerVisibility
6:00 AM
Tue, Jul 28
61 °FLow clouds.No wind96%29.86 "Hg12 mi
5:00 AM61 °FCool.1 mph97%29.85 "HgN/A
4:00 AM61 °FCool.2 mph95%29.86 "HgN/A
3:00 AM63 °FMild.1 mph92%29.86 "HgN/A
2:00 AM64 °FMild.No wind89%29.85 "HgN/A
1:00 AM65 °FMild.1 mph84%29.85 "HgN/A
12:00 AM65 °FMild.2 mph78%29.85 "HgN/A
10:00 PM
Mon, Jul 27
65 °FOvercast.2 mph85%29.84 "Hg19 mi
9:00 PM65 °FPassing clouds.1 mph81%29.83 "Hg19 mi
8:00 PM66 °FPartly sunny.1 mph80%29.81 "Hg19 mi
7:00 PM67 °FMild.2 mph78%29.79 "HgN/A
6:00 PM67 °FMild.1 mph81%29.78 "HgN/A
5:00 PM66 °FMild.3 mph84%29.78 "HgN/A
4:00 PM68 °FOvercast.1 mph80%29.75 "Hg7 mi
3:00 PM67 °FLight rain. Overcast.1 mph83%29.75 "Hg6 mi
2:00 PM67 °FOvercast.1 mph84%29.75 "Hg6 mi
1:00 PM64 °FOvercast.1 mph87%29.76 "Hg5 mi
12:00 PM63 °FLight rain. Low clouds.No wind91%29.76 "Hg5 mi
11:00 AM63 °FRain. Low clouds.No wind87%29.77 "Hg5 mi
10:00 AM62 °FLow clouds.1 mph91%29.76 "Hg5 mi
9:00 AM61 °FLight rain. Low clouds.1 mph94%29.76 "Hg5 mi
8:00 AM61 °FSprinkles. Low clouds.No wind88%29.76 "Hg6 mi
Weather by CustomWeather, © 2015

See weather overviewHow to use our weather pages